Preview of NWS' New Version of Forecast
This preview is not operational and should not be used for support decisions.
Latest weather observations around

Sandberg (KSDB)

Using English Units (Switch to International System of Units)
Date/ Time (PDT) Wind (mph) Vis. (mi) Weather Sky Cond. Temp (°F) Rel. Humidity Wind Chill (°F) Heat Index (°F) Pressure Precip. (in)
Air Dwpt 6 hour Altimeter (inHg) Sea level (inHg) 1 hr 3 hr 6 hr
Max Min
Jun 19 10:53 NNW 13 10 Clear CLR 84 52     33%   82          
Jun 19 09:53 NNW 16 10 Clear CLR 82 51     34%   81   29.93      
Jun 19 08:53 NNW 11 10 Clear CLR 79 48     34%   78   29.93      
Jun 19 07:53 NNW 11 10 Clear CLR 76 48     37%   75   29.92      
Notice The following observation data may not be complete
Jun 19 05:53 NW 15 10 Clear CLR          %              
Notice The following observation data may not be complete
Jun 19 04:53 W 13 10 Clear CLR          %              
Notice The following observation data may not be complete
Jun 19 03:53 Calm 10 Clear CLR          %              
Notice The following observation data may not be complete
Jun 19 02:53 7 10 Clear CLR          %              
Notice The following observation data may not be complete
Jun 19 01:53 NW 14 10 Clear CLR          %              
Notice The following observation data may not be complete
Jun 19 00:53   10 Clear CLR          %              
Notice The following observation data may not be complete
Jun 18 23:53 NW 17 10 Clear CLR          %              
Notice The following observation data may not be complete
Jun 18 22:53 NNW 14 10 Clear CLR          %              
Jun 18 21:53 NW 17 10 Clear CLR 75 47     37%   74   29.92      
Jun 18 20:53   10 Clear CLR 75 50     41%   74   29.92      
Jun 18 19:53 WNW 13 10 Clear CLR 78 47     33%   77   29.91      
Jun 18 18:53 W 10 10 Clear CLR 81 51     35%   80   29.9      
Jun 18 17:53 Calm 10 Clear CLR 80 57     45%   80   29.92      
Jun 18 16:53 SSW 8 10 Clear CLR 79 56     45%   79   29.91      
Jun 18 15:53 SSE 7 10 Mostly Clear FEW120 82 48     31%   81   29.91      
Jun 18 14:53 SW 8 10 Mostly Clear FEW080 83 51     33%   81   29.92      
Jun 18 13:53 S 11 10 Mostly Clear FEW090 84 51     32%   82   29.93      
Jun 18 12:53 E 14 10 Clear CLR 87 48     26%   84   29.92      
Notice The following observation data may not be complete
Jun 18 11:53 NE 9 10 Clear CLR          %              
Jun 18 10:53 NE 8 10 Clear CLR 85 47     27%   82   29.92      
Jun 18 09:53 NW 6 10 Clear CLR 80 46     30%   79   29.93      
Jun 18 08:53 NW 13 10 Clear CLR 77 48     36%   76   29.93      
Jun 18 07:53 NNW 11 10 Clear CLR 73 50     44%   72   29.93      
Jun 18 05:53 NNW 13 10 Clear CLR 66 48     52%       29.9      
Jun 18 04:53 NNW 17 10 Clear CLR 66 48     52%       29.88      
Jun 18 03:53 NNW 16 10 Clear CLR 67 50     55%       29.87      
Jun 18 02:53   10 Clear CLR 66 53     63%       29.87      
Jun 18 01:53 NNW 15 10 Clear CLR 67 52     59%       29.86      
Jun 18 00:53 NNW 18 10 Clear CLR 68 52     57%       29.86      
Jun 17 23:53 NW 13 10 Clear CLR 69 53     57%       29.86      
Jun 17 22:53   10 Clear CLR 71 53     53%   70   29.84      
Jun 17 21:53   10 Clear CLR 71 49     45%   70   29.86      
Jun 17 20:53 NW 14 10 Clear CLR 71 47     42%   70   29.85      
Jun 17 19:53 W 8 10 Clear CLR 67 52     59%       29.86      
Jun 17 18:53 SW 7 10 Clear CLR 67 54     63%       29.86      
Jun 17 17:53 S 7 10 Clear CLR 70 52     53%       29.85      
Jun 17 16:53 S 10 10 Clear CLR 72 53     51%   71   29.84      
Jun 17 15:53 S 14 10 Clear CLR 73 54     51%   72   29.84      
Jun 17 14:53 SSW 14 10 Clear CLR 72 55     55%   71   29.85      
Jun 17 13:53 S 13 10 Clear CLR 76 56     50%   76   29.84      
Jun 17 12:53 SSW 8 10 Clear CLR 76 53     45%   75   29.84      
Jun 17 11:53 S 8 10 Clear CLR 79 51     38%   78   29.83      
Jun 17 10:53 ESE 8 10 Clear CLR 81 48     32%   80   29.83      
Jun 17 09:53 5 10 Clear CLR 75 50     41%   74   29.83      
Jun 17 08:53 N 3 10 Clear CLR 73 46     38%   72   29.83      
Jun 17 07:53 NW 14 10 Clear CLR 67 46     47%       29.83      
Jun 17 06:53 NW 14 10 Clear CLR 64 44     48%       29.82      
Jun 17 05:53 NW 15 10 Clear CLR 63 45     52%       29.8      
Jun 17 04:53 NW 11 10 Clear CLR 63 47     56%       29.79      
Jun 17 03:53 NW 16 10 Clear CLR 63 48     58%       29.78      
Jun 17 02:53 NW 17 10 Clear CLR 64 48     56%       29.78      
Jun 17 01:53 WNW 6 10 Clear CLR 62 49     62%       29.8      
Jun 17 00:53 WNW 15 10 Clear CLR 65 48     54%       29.8      
Jun 16 23:53 W 16 10 Clear CLR 66 48     52%       29.8      
Jun 16 22:53 Calm 10 Clear   65 48     54%       29.82      
Jun 16 21:53 WNW 7 10 Clear CLR 66 49     54%       29.83      
Jun 16 20:53 W 10 10 Clear CLR 64 51     63%       29.82      
Jun 16 19:53 WSW 8 10 Clear CLR 63 54     72%       29.83      
Jun 16 18:53 SSW 9 10 Clear CLR 67 55     66%       29.81      
Jun 16 17:53 S 11 10 Clear CLR 70 54     57%       29.8      
Jun 16 16:53 SSW 11 10 Clear CLR 73 53     50%   72   29.8      
Jun 16 15:53 SSW 11 10 Clear CLR 75 53     46%   74   29.81      
Jun 16 14:53 S 10 10 Clear CLR 76 53     45%   75   29.83      
Jun 16 13:53 S 9 10 Clear CLR 77 54     45%   77   29.83      
Jun 16 12:53 NW 11 10 Clear CLR 79 38     23%   78   29.83      
Jun 16 11:53   10 Clear CLR 78 38     24%   77   29.83      
Jun 16 10:53 NNW 14 10 Clear CLR 75 35     23%   73   29.83      
Jun 16 09:53 NNW 15 10 Clear CLR 74 34     23%   72   29.83      
Jun 16 08:53 NW 11 10 Clear CLR 71 31     23%   69   29.83      
May 14 17:53   10 Clear CLR 56 46     69%       29.92      
May 14 14:53   10 Clear CLR 64 47     54%       29.92      
May 14 05:53 NNW 11 10 Clear CLR 46 41     82% 41     29.9      
May 14 03:27 SW 7 10 Partly Cloudy SCT001 43 43     100% 39            
May 13 18:53 WSW 5 10 Clear CLR 55 46     72%       29.93      
May 13 09:06 S 10 10 Mostly Cloudy BKN002 45 44     97% 40            
May 12 18:44 SSW 16 0.25 Fog VV002 46 46     100% 39            
May 12 17:53 S 18 6 Fog/Mist OVC002 47 46     97% 40     29.9      
May 12 17:11 SSW 13 2 Fog/Mist OVC002 47 46     97% 41            
May 12 15:53   1 Fog/Mist OVC002 49 47     93%       29.89      
May 12 15:39   1.5 Fog/Mist BKN002 OVC006 50 47     89%              
May 12 14:02 S 15 10 Mostly Cloudy BKN008 52 46     80%              
May 12 06:53 SSW 14 0.25 Fog VV001 43 43     100% 36     29.87      
May 12 01:53 SSW 11 0.25 Fog VV001 44 44     100% 38     29.83      
May 12 00:53 SSW 13 0.25 Fog VV001 45 45     100% 39     29.83      
May 11 22:53 SW 14 0.25 Fog VV001 45 45     100% 39     29.81 0   0
May 11 20:53   0.25 Light Rain and Fog VV001 46 46     100%       29.75 0    
May 11 19:53 SSW 15 0.25 Light Rain and Fog VV001 46 46     100% 40     29.74 0 0  
Notice The following observation data may not be complete
May 11 16:53 S 21 0.25 Light Rain and Fog VV001   48      %       29.73 0   0
Notice The following observation data may not be complete
May 11 14:53 S 9 0.25 Light Rain and Fog VV001   48      %       29.76 0    
Jun 11 21:53 W 5 7 Mostly Cloudy FEW002 BKN041 47 45     93% 45     29.92      
Jun 11 16:19 N 13 10 Cloudy SCT013 OVC019 53 42     66%              
Jun 11 11:04 SSW 11 10 Cloudy BKN010 OVC015 53 46     77%              
Jun 11 06:53   10 Clear CLR 46 39     76%       29.81      
Jun 10 22:53   10 Clear CLR 54 42     64%       29.82      
Jun 10 16:53 SW 9 10 Partly Cloudy FEW018 FEW023 SCT030 66 46     48%       29.81      
Jun 10 10:53 NNW 17 10 Clear CLR 61 44     54%       29.83      
Jun 10 02:53 N 16 10 Mostly Cloudy BKN005 54 51     90%       29.81      
Jun 09 22:53   10 Clear CLR 59 47     64%       29.86      
Jun 09 11:53   10 Mostly Clear FEW033 72 50     46%   71   29.89      
Jun 08 09:53 N 11 10 Clear CLR 69 41     36%       29.95      
Jun 08 05:53 NNW 15 10 Clear   57 41     55%       29.92      
Jun 08 01:53   10 Clear CLR 61 42     50%       29.89      
Jun 07 06:53 NW 8 10 Clear CLR 69 33     26%       29.85      
Jun 06 05:53 NNW 16 10 Clear CLR 65 35     33%       29.87